| time (UTC) | temp F | wind direction | speed MPH | gust MPH | rain 1hr in | rain 24hr in | rain mn in | humidity % | barometer mb |
| 20260904120226 | 77 | 165 | 3.0 | 5.0 | 0.00 | 0.00 | 0.00 | 80 | 1012.3 |
| 20260904120021 | 76 | 165 | 2.0 | 5.0 | 0.00 | 0.00 | 0.00 | 80 | 1009.5 |
| 20260904115737 | 77 | 159 | 4.0 | 5.0 | 0.00 | 0.00 | 0.00 | 80 | 1012.3 |
| 20260904115249 | 77 | 194 | 3.0 | 4.0 | 0.00 | 0.00 | 0.00 | 79 | 1012.2 |
| 20260904114729 | 77 | 194 | 3.0 | 4.0 | 0.00 | 0.00 | 0.00 | 79 | 1012.1 |
| 20260904114524 | 77 | 194 | 2.0 | 4.0 | 0.00 | 0.00 | 0.00 | 79 | 1009.2 |
| 20260904114243 | 77 | 194 | 3.0 | 4.0 | 0.00 | 0.00 | 0.00 | 79 | 1012.1 |
| 20260904113726 | 77 | 194 | 3.0 | 5.0 | 0.00 | 0.00 | 0.00 | 79 | 1012.1 |
| 20260904113239 | 77 | 194 | 3.0 | 5.0 | 0.00 | 0.00 | 0.00 | 79 | 1012.0 |
| 20260904113025 | 77 | 194 | 3.0 | 5.0 | 0.00 | 0.00 | 0.00 | 79 | 1009.1 |
| 20260904112721 | 77 | 169 | 4.0 | 6.0 | 0.00 | 0.00 | 0.00 | 79 | 1012.0 |
| 20260904112230 | 78 | 167 | 4.0 | 6.0 | 0.00 | 0.00 | 0.00 | 79 | 1012.0 |
| 20260904111800 | 78 | 175 | 5.0 | 6.0 | 0.00 | 0.00 | 0.00 | 78 | 1012.0 |
| 20260904111556 | 77 | 170 | 3.0 | 5.0 | 0.00 | 0.00 | 0.00 | 78 | 1009.1 |
| 20260904111234 | 78 | 178 | 4.0 | 5.0 | 0.00 | 0.00 | 0.00 | 78 | 1011.9 |
| 20260904110805 | 78 | 165 | 4.0 | 6.0 | 0.00 | 0.01 | 0.00 | 78 | 1011.9 |
| 20260904110228 | 78 | 193 | 5.0 | 7.0 | 0.00 | 0.01 | 0.00 | 78 | 1011.9 |
| 20260904110024 | 78 | 180 | 4.0 | 6.0 | 0.00 | 0.01 | 0.00 | 77 | 1009.1 |
| 20260904105800 | 78 | 176 | 4.0 | 8.0 | 0.00 | 0.01 | 0.00 | 77 | 1012.0 |
| 20260904105248 | 78 | 201 | 4.0 | 8.0 | 0.00 | 0.01 | 0.00 | 77 | 1011.9 |
| 20260904104738 | 78 | 164 | 4.0 | 7.0 | 0.00 | 0.01 | 0.00 | 77 | 1011.9 |
| 20260904104524 | 78 | 173 | 4.0 | 7.0 | 0.00 | 0.01 | 0.00 | 77 | 1009.0 |
| 20260904104222 | 79 | 200 | 4.0 | 8.0 | 0.00 | 0.01 | 0.00 | 77 | 1011.9 |
| 20260904103732 | 79 | 200 | 4.0 | 8.0 | 0.00 | 0.01 | 0.00 | 77 | 1011.9 |
| 20260904103245 | 79 | 200 | 4.0 | 8.0 | 0.00 | 0.01 | 0.00 | 77 | 1011.9 |
| 20260904103033 | 78 | 200 | 4.0 | 8.0 | 0.00 | 0.01 | 0.00 | 77 | 1009.1 |
| 20260904102726 | 79 | 198 | 5.0 | 9.0 | 0.00 | 0.01 | 0.00 | 77 | 1011.9 |
| 20260904102238 | 79 | 191 | 5.0 | 9.0 | 0.00 | 0.01 | 0.00 | 77 | 1011.9 |
| 20260904101746 | 79 | 188 | 6.0 | 9.0 | 0.00 | 0.01 | 0.00 | 76 | 1011.8 |
| 20260904101529 | 79 | 196 | 6.0 | 9.0 | 0.00 | 0.01 | 0.00 | 76 | 1009.0 |
| 20260904101230 | 79 | 193 | 6.0 | 10.0 | 0.00 | 0.01 | 0.00 | 76 | 1011.8 |
| 20260904100739 | 79 | 206 | 5.0 | 10.0 | 0.00 | 0.01 | 0.00 | 76 | 1011.8 |
| 20260904100225 | 79 | 181 | 6.0 | 11.0 | 0.00 | 0.01 | 0.00 | 76 | 1011.8 |
| 20260904100026 | 79 | 205 | 5.0 | 11.0 | 0.00 | 0.01 | 0.00 | 76 | 1008.9 |
| 20260904095756 | 79 | 185 | 7.0 | 11.0 | 0.00 | 0.01 | 0.00 | 75 | 1011.7 |
| 20260904095247 | 79 | 184 | 7.0 | 13.0 | 0.00 | 0.01 | 0.00 | 75 | 1011.8 |
| 20260904094731 | 79 | 219 | 8.0 | 13.0 | 0.00 | 0.01 | 0.00 | 75 | 1011.7 |
| 20260904094509 | 79 | 189 | 8.0 | 16.0 | 0.00 | 0.01 | 0.00 | 75 | 1008.8 |
| 20260904094300 | 79 | 182 | 8.0 | 16.0 | 0.00 | 0.01 | 0.00 | 75 | 1011.7 |
| 20260904093722 | 80 | 188 | 8.0 | 13.0 | 0.00 | 0.01 | 0.00 | 75 | 1011.6 |
| 20260904093233 | 80 | 176 | 8.0 | 14.0 | 0.00 | 0.01 | 0.00 | 75 | 1011.6 |
| 20260904093050 | 79 | 171 | 8.0 | 14.0 | 0.00 | 0.01 | 0.00 | 75 | 1008.7 |
| 20260904092806 | 79 | 200 | 9.0 | 14.0 | 0.00 | 0.01 | 0.00 | 75 | 1011.6 |
| 20260904092227 | 79 | 194 | 9.0 | 15.0 | 0.00 | 0.01 | 0.00 | 75 | 1011.4 |
| 20260904091737 | 79 | 203 | 8.0 | 13.0 | 0.00 | 0.01 | 0.00 | 75 | 1011.4 |
| 20260904091524 | 79 | 210 | 8.0 | 13.0 | 0.00 | 0.01 | 0.00 | 75 | 1008.6 |
| 20260904091310 | 79 | 202 | 7.0 | 13.0 | 0.00 | 0.01 | 0.00 | 75 | 1011.4 |
| 20260904090724 | 79 | 190 | 7.0 | 15.0 | 0.00 | 0.01 | 0.00 | 75 | 1011.4 |
| 20260904090255 | 79 | 178 | 9.0 | 14.0 | 0.00 | 0.01 | 0.00 | 75 | 1011.4 |
| 20260904090049 | 79 | 214 | 7.0 | 14.0 | 0.00 | 0.01 | 0.00 | 75 | 1008.5 |
| 20260904085747 | 79 | 175 | 8.0 | 12.0 | 0.00 | 0.01 | 0.00 | 75 | 1011.3 |
| 20260904085232 | 79 | 181 | 8.0 | 12.0 | 0.00 | 0.01 | 0.00 | 75 | 1011.4 |
| 20260904084744 | 79 | 202 | 8.0 | 12.0 | 0.00 | 0.01 | 0.00 | 75 | 1011.3 |
| 20260904084548 | 79 | 208 | 7.0 | 12.0 | 0.00 | 0.01 | 0.00 | 75 | 1008.5 |
| 20260904084228 | 79 | 169 | 8.0 | 12.0 | 0.00 | 0.01 | 0.00 | 75 | 1011.3 |
| 20260904083738 | 79 | 194 | 8.0 | 12.0 | 0.00 | 0.01 | 0.00 | 75 | 1011.3 |
| 20260904083247 | 79 | 207 | 8.0 | 13.0 | 0.00 | 0.01 | 0.00 | 75 | 1011.3 |
| 20260904083102 | 78 | 223 | 8.0 | 13.0 | 0.00 | 0.01 | 0.00 | 75 | 1008.4 |
| 20260904082738 | 79 | 165 | 9.0 | 14.0 | 0.00 | 0.01 | 0.00 | 75 | 1011.2 |
| 20260904082249 | 79 | 202 | 9.0 | 13.0 | 0.00 | 0.01 | 0.00 | 75 | 1011.2 |
| 20260904081741 | 79 | 178 | 9.0 | 13.0 | 0.00 | 0.01 | 0.00 | 75 | 1011.3 |
| 20260904081521 | 78 | 178 | 8.0 | 13.0 | 0.00 | 0.01 | 0.00 | 74 | 1008.4 |
| 20260904081227 | 79 | 188 | 8.0 | 13.0 | 0.00 | 0.01 | 0.00 | 75 | 1011.3 |
| 20260904080737 | 79 | 212 | 7.0 | 13.0 | 0.00 | 0.01 | 0.00 | 74 | 1011.3 |
| 20260904080249 | 79 | 179 | 7.0 | 12.0 | 0.00 | 0.01 | 0.00 | 74 | 1011.3 |
| 20260904080023 | 78 | 202 | 7.0 | 14.0 | 0.00 | 0.01 | 0.00 | 74 | 1008.5 |
| 20260904075732 | 79 | 225 | 8.0 | 12.0 | 0.00 | 0.01 | 0.00 | 74 | 1011.4 |
| 20260904075240 | 79 | 222 | 6.0 | 10.0 | 0.00 | 0.01 | 0.00 | 73 | 1011.4 |
| 20260904074725 | 79 | 198 | 7.0 | 11.0 | 0.00 | 0.01 | 0.00 | 73 | 1011.5 |
| 20260904074546 | 79 | 202 | 6.0 | 11.0 | 0.00 | 0.01 | 0.00 | 73 | 1008.6 |
| 20260904074238 | 79 | 173 | 7.0 | 11.0 | 0.00 | 0.01 | 0.00 | 73 | 1011.4 |
| 20260904073809 | 79 | 180 | 8.0 | 12.0 | 0.00 | 0.01 | 0.00 | 73 | 1011.4 |
| 20260904073232 | 80 | 180 | 8.0 | 11.0 | 0.00 | 0.01 | 0.00 | 72 | 1011.4 |
| 20260904073016 | 79 | 165 | 7.0 | 11.0 | 0.00 | 0.01 | 0.00 | 72 | 1008.6 |
| 20260904072743 | 80 | 173 | 8.0 | 11.0 | 0.00 | 0.01 | 0.00 | 72 | 1011.3 |
| 20260904072225 | 80 | 173 | 7.0 | 11.0 | 0.00 | 0.01 | 0.00 | 72 | 1011.4 |
| 20260904071732 | 80 | 202 | 8.0 | 13.0 | 0.00 | 0.01 | 0.00 | 71 | 1011.4 |
| 20260904071511 | 80 | 193 | 8.0 | 15.0 | 0.00 | 0.01 | 0.00 | 71 | 1008.6 |
| 20260904071245 | 80 | 187 | 8.0 | 15.0 | 0.00 | 0.01 | 0.00 | 71 | 1011.4 |
| 20260904070726 | 80 | 205 | 9.0 | 16.0 | 0.00 | 0.01 | 0.00 | 71 | 1011.3 |
| 20260904070237 | 81 | 166 | 9.0 | 16.0 | 0.00 | 0.01 | 0.00 | 71 | 1011.3 |
| 20260904070007 | 80 | 160 | 8.0 | 16.0 | 0.00 | 0.01 | 0.00 | 70 | 1008.4 |
| 20260904065746 | 81 | 136 | 9.0 | 14.0 | 0.00 | 0.01 | 0.00 | 70 | 1011.3 |
| 20260904065227 | 81 | 181 | 9.0 | 14.0 | 0.00 | 0.01 | 0.00 | 70 | 1011.3 |
| 20260904064740 | 81 | 188 | 7.0 | 14.0 | 0.00 | 0.01 | 0.00 | 70 | 1011.3 |
| 20260904064515 | 81 | 200 | 8.0 | 18.0 | 0.00 | 0.01 | 0.00 | 70 | 1008.5 |
| 20260904064252 | 81 | 173 | 8.0 | 18.0 | 0.00 | 0.01 | 0.00 | 70 | 1011.4 |
| 20260904063738 | 81 | 188 | 10.0 | 20.0 | 0.00 | 0.01 | 0.00 | 69 | 1011.3 |
| 20260904063252 | 81 | 193 | 10.0 | 20.0 | 0.00 | 0.01 | 0.00 | 69 | 1011.4 |
| 20260904063043 | 81 | 164 | 10.0 | 20.0 | 0.00 | 0.01 | 0.00 | 69 | 1008.5 |
| 20260904062743 | 81 | 178 | 10.0 | 17.0 | 0.00 | 0.01 | 0.00 | 69 | 1011.3 |
| 20260904062225 | 81 | 162 | 9.0 | 14.0 | 0.00 | 0.01 | 0.00 | 69 | 1011.3 |
| 20260904061736 | 82 | 201 | 9.0 | 16.0 | 0.00 | 0.01 | 0.00 | 69 | 1011.3 |
| 20260904061541 | 81 | 191 | 7.0 | 17.0 | 0.00 | 0.01 | 0.00 | 69 | 1008.4 |
| 20260904061245 | 82 | 182 | 9.0 | 17.0 | 0.00 | 0.01 | 0.00 | 69 | 1011.3 |
| 20260904060726 | 82 | 209 | 10.0 | 17.0 | 0.00 | 0.01 | 0.00 | 69 | 1011.3 |
| 20260904060234 | 82 | 200 | 9.0 | 16.0 | 0.00 | 0.01 | 0.00 | 69 | 1011.2 |
| 20260904060045 | 81 | 184 | 8.0 | 16.0 | 0.00 | 0.01 | 0.00 | 69 | 1008.3 |
| 20260904055745 | 82 | 178 | 10.0 | 16.0 | 0.00 | 0.01 | 0.00 | 69 | 1011.2 |
| 20260904055229 | 82 | 165 | 11.0 | 16.0 | 0.00 | 0.01 | 0.00 | 69 | 1011.0 |
| 20260904054740 | 82 | 166 | 11.0 | 17.0 | 0.00 | 0.01 | 0.00 | 69 | 1011.0 |
| 20260904054542 | 81 | 173 | 10.0 | 17.0 | 0.00 | 0.01 | 0.00 | 69 | 1008.1 |
| 20260904054231 | 82 | 170 | 10.0 | 15.0 | 0.00 | 0.01 | 0.00 | 69 | 1011.0 |
| 20260904053740 | 82 | 148 | 10.0 | 15.0 | 0.00 | 0.01 | 0.00 | 69 | 1011.0 |
| 20260904053255 | 82 | 173 | 10.0 | 16.0 | 0.00 | 0.01 | 0.00 | 69 | 1011.0 |
| 20260904053059 | 81 | 202 | 10.0 | 15.0 | 0.00 | 0.01 | 0.00 | 69 | 1008.1 |
| 20260904053001 | 81 | 161 | 9.0 | 14.0 | 0.00 | 0.01 | 0.00 | 69 | 1008.1 |
| 20260904052742 | 82 | 150 | 9.0 | 14.0 | 0.00 | 0.01 | 0.00 | 69 | 1011.0 |
| 20260904052224 | 82 | 150 | 11.0 | 17.0 | 0.00 | 0.01 | 0.00 | 69 | 1010.9 |
| 20260904051735 | 82 | 145 | 10.0 | 16.0 | 0.00 | 0.01 | 0.00 | 69 | 1010.9 |
| 20260904051508 | 82 | 146 | 10.0 | 16.0 | 0.00 | 0.01 | 0.00 | 69 | 1008.1 |
| 20260904051249 | 82 | 188 | 11.0 | 16.0 | 0.00 | 0.01 | 0.00 | 69 | 1010.9 |
| 20260904050731 | 82 | 148 | 9.0 | 17.0 | 0.00 | 0.01 | 0.01 | 69 | 1011.0 |
| 20260904050222 | 82 | 166 | 10.0 | 16.0 | 0.00 | 0.01 | 0.01 | 69 | 1010.9 |
| 20260904050051 | 82 | 150 | 9.0 | 17.0 | 0.00 | 0.01 | 0.01 | 69 | 1008.1 |
| 20260904045733 | 82 | 143 | 10.0 | 17.0 | 0.00 | 0.01 | 0.01 | 68 | 1010.9 |
| 20260904045248 | 82 | 139 | 11.0 | 17.0 | 0.00 | 0.01 | 0.01 | 69 | 1010.9 |
| 20260904044727 | 83 | 160 | 9.0 | 16.0 | 0.00 | 0.01 | 0.01 | 68 | 1010.9 |
| 20260904044607 | 82 | 156 | 9.0 | 16.0 | 0.00 | 0.01 | 0.01 | 68 | 1008.0 |
| 20260904044240 | 83 | 159 | 10.0 | 15.0 | 0.00 | 0.01 | 0.01 | 68 | 1010.9 |
| 20260904043722 | 83 | 159 | 10.0 | 15.0 | 0.00 | 0.01 | 0.01 | 68 | 1010.8 |
| 20260904043233 | 83 | 147 | 10.0 | 15.0 | 0.00 | 0.01 | 0.01 | 68 | 1010.9 |
| 20260904043101 | 82 | 150 | 9.0 | 15.0 | 0.00 | 0.01 | 0.01 | 68 | 1008.0 |
| 20260904042745 | 83 | 138 | 11.0 | 15.0 | 0.00 | 0.01 | 0.01 | 68 | 1010.9 |
| 20260904042227 | 83 | 167 | 9.0 | 14.0 | 0.00 | 0.01 | 0.01 | 68 | 1010.9 |
| 20260904041737 | 83 | 165 | 10.0 | 15.0 | 0.00 | 0.01 | 0.01 | 67 | 1010.9 |
| 20260904041605 | 83 | 149 | 8.0 | 15.0 | 0.00 | 0.01 | 0.01 | 67 | 1008.0 |
| 20260904041507 | 83 | 130 | 8.0 | 15.0 | 0.00 | 0.01 | 0.01 | 67 | 1008.0 |
| 20260904041223 | 83 | 176 | 8.0 | 15.0 | 0.00 | 0.01 | 0.01 | 67 | 1010.9 |
| 20260904040729 | 84 | 172 | 8.0 | 15.0 | 0.00 | 0.01 | 0.01 | 67 | 1010.9 |
| 20260904040303 | 84 | 163 | 9.0 | 15.0 | 0.00 | 0.01 | 0.01 | 67 | 1010.9 |
| 20260904040100 | 83 | 158 | 9.0 | 15.0 | 0.00 | 0.01 | 0.01 | 67 | 1008.0 |
| 20260904035725 | 84 | 157 | 9.0 | 15.0 | 0.00 | 0.01 | 0.01 | 67 | 1011.0 |
| 20260904035237 | 84 | 152 | 10.0 | 16.0 | 0.00 | 0.01 | 0.01 | 66 | 1010.9 |
| 20260904034749 | 84 | 150 | 10.0 | 16.0 | 0.00 | 0.01 | 0.01 | 66 | 1011.0 |
| 20260904034559 | 84 | 163 | 8.0 | 15.0 | 0.00 | 0.01 | 0.01 | 66 | 1008.1 |
| 20260904034233 | 84 | 148 | 10.0 | 15.0 | 0.00 | 0.01 | 0.01 | 66 | 1011.0 |
| 20260904033803 | 85 | 198 | 9.0 | 16.0 | 0.00 | 0.01 | 0.01 | 66 | 1011.0 |
| 20260904033221 | 85 | 154 | 10.0 | 15.0 | 0.00 | 0.01 | 0.01 | 66 | 1010.9 |
| 20260904033027 | 84 | 146 | 10.0 | 15.0 | 0.00 | 0.01 | 0.01 | 66 | 1008.0 |
| 20260904032753 | 85 | 132 | 11.0 | 18.0 | 0.00 | 0.01 | 0.01 | 65 | 1010.9 |
| 20260904032244 | 85 | 151 | 10.0 | 18.0 | 0.00 | 0.01 | 0.01 | 65 | 1011.0 |
| 20260904031730 | 85 | 165 | 12.0 | 19.0 | 0.00 | 0.01 | 0.01 | 65 | 1010.9 |
| 20260904031508 | 85 | 148 | 10.0 | 17.0 | 0.00 | 0.01 | 0.01 | 65 | 1007.9 |
| 20260904031243 | 85 | 134 | 11.0 | 17.0 | 0.00 | 0.01 | 0.01 | 65 | 1010.9 |
| 20260904030723 | 85 | 133 | 12.0 | 17.0 | 0.00 | 0.01 | 0.01 | 65 | 1010.8 |
| 20260904030255 | 85 | 132 | 10.0 | 17.0 | 0.00 | 0.01 | 0.01 | 65 | 1010.7 |
| 20260904030046 | 85 | 153 | 8.0 | 15.0 | 0.00 | 0.01 | 0.01 | 65 | 1007.7 |
| 20260904025741 | 85 | 150 | 10.0 | 15.0 | 0.00 | 0.01 | 0.01 | 65 | 1010.7 |
| 20260904025227 | 86 | 138 | 11.0 | 19.0 | 0.00 | 0.01 | 0.01 | 65 | 1010.7 |
| 20260904024740 | 86 | 144 | 10.0 | 19.0 | 0.00 | 0.01 | 0.01 | 65 | 1010.7 |
| 20260904024544 | 85 | 136 | 11.0 | 19.0 | 0.00 | 0.01 | 0.01 | 65 | 1007.6 |
| 20260904024224 | 86 | 130 | 10.0 | 19.0 | 0.00 | 0.01 | 0.01 | 65 | 1010.7 |
| 20260904023734 | 86 | 136 | 10.0 | 17.0 | 0.00 | 0.01 | 0.01 | 65 | 1010.6 |
| 20260904023306 | 86 | 135 | 11.0 | 17.0 | 0.00 | 0.01 | 0.01 | 64 | 1010.6 |
| 20260904023026 | 86 | 161 | 9.0 | 14.0 | 0.00 | 0.01 | 0.01 | 64 | 1007.6 |
| 20260904022730 | 86 | 135 | 10.0 | 14.0 | 0.00 | 0.01 | 0.01 | 64 | 1010.6 |
| 20260904022257 | 87 | 156 | 10.0 | 16.0 | 0.00 | 0.01 | 0.01 | 64 | 1010.6 |
| 20260904021721 | 87 | 144 | 11.0 | 18.0 | 0.00 | 0.01 | 0.01 | 64 | 1010.5 |
| 20260904021504 | 86 | 136 | 10.0 | 18.0 | 0.00 | 0.01 | 0.01 | 64 | 1007.5 |
| 20260904021233 | 87 | 149 | 10.0 | 16.0 | 0.00 | 0.01 | 0.01 | 64 | 1010.4 |
| 20260904020802 | 87 | 144 | 10.0 | 17.0 | 0.00 | 0.01 | 0.01 | 64 | 1010.5 |
| 20260904020225 | 87 | 168 | 10.0 | 17.0 | 0.00 | 0.01 | 0.01 | 63 | 1010.4 |
| 20260904020051 | 86 | 141 | 12.0 | 17.0 | 0.00 | 0.01 | 0.01 | 63 | 1007.3 |
| 20260904015738 | 87 | 147 | 9.0 | 17.0 | 0.00 | 0.01 | 0.01 | 63 | 1010.4 |
| 20260904015223 | 87 | 155 | 8.0 | 16.0 | 0.00 | 0.01 | 0.01 | 63 | 1010.4 |
| 20260904014732 | 87 | 136 | 10.0 | 15.0 | 0.00 | 0.01 | 0.01 | 63 | 1010.3 |
| 20260904014622 | 87 | 167 | 10.0 | 15.0 | 0.00 | 0.01 | 0.01 | 63 | 1007.3 |
| 20260904014244 | 87 | 148 | 8.0 | 14.0 | 0.00 | 0.01 | 0.01 | 63 | 1010.2 |
| 20260904013731 | 88 | 158 | 8.0 | 15.0 | 0.00 | 0.01 | 0.01 | 63 | 1010.2 |
| 20260904013244 | 88 | 151 | 10.0 | 16.0 | 0.00 | 0.01 | 0.01 | 63 | 1010.2 |
| 20260904013029 | 87 | 142 | 9.0 | 16.0 | 0.00 | 0.01 | 0.01 | 62 | 1007.1 |
| 20260904012726 | 88 | 148 | 10.0 | 15.0 | 0.00 | 0.01 | 0.01 | 62 | 1010.1 |
| 20260904012239 | 88 | 177 | 8.0 | 15.0 | 0.00 | 0.01 | 0.01 | 62 | 1010.0 |
| 20260904011726 | 89 | 146 | 9.0 | 14.0 | 0.00 | 0.01 | 0.01 | 62 | 1009.9 |
| 20260904011506 | 88 | 158 | 9.0 | 15.0 | 0.00 | 0.01 | 0.01 | 62 | 1006.9 |
| 20260904011255 | 89 | 155 | 10.0 | 15.0 | 0.00 | 0.01 | 0.01 | 61 | 1009.9 |
| 20260904010744 | 89 | 140 | 8.0 | 15.0 | 0.00 | 0.01 | 0.01 | 61 | 1009.8 |
| 20260904010234 | 90 | 159 | 8.0 | 14.0 | 0.00 | 0.01 | 0.01 | 60 | 1009.8 |
| 20260904010032 | 89 | 138 | 8.0 | 14.0 | 0.00 | 0.01 | 0.01 | 60 | 1006.8 |
| 20260904005745 | 90 | 144 | 9.0 | 14.0 | 0.00 | 0.01 | 0.01 | 59 | 1009.7 |
| 20260904005228 | 90 | 146 | 8.0 | 14.0 | 0.00 | 0.01 | 0.01 | 58 | 1009.8 |
| 20260904004740 | 91 | 144 | 8.0 | 14.0 | 0.00 | 0.01 | 0.01 | 58 | 1009.7 |
| 20260904004528 | 90 | 174 | 8.0 | 16.0 | 0.00 | 0.01 | 0.01 | 58 | 1006.7 |
| 20260904004224 | 91 | 167 | 8.0 | 16.0 | 0.00 | 0.01 | 0.01 | 58 | 1009.7 |
| 20260904003748 | 91 | 147 | 10.0 | 16.0 | 0.00 | 0.01 | 0.01 | 57 | 1009.7 |
| 20260904003232 | 92 | 168 | 9.0 | 18.0 | 0.00 | 0.01 | 0.01 | 57 | 1009.7 |
| 20260904003030 | 91 | 149 | 9.0 | 18.0 | 0.00 | 0.01 | 0.01 | 57 | 1006.6 |
| 20260904002743 | 92 | 150 | 9.0 | 18.0 | 0.00 | 0.01 | 0.01 | 57 | 1009.6 |
| 20260904002235 | 92 | 157 | 9.0 | 18.0 | 0.00 | 0.01 | 0.01 | 57 | 1009.7 |
| 20260904001746 | 93 | 157 | 11.0 | 18.0 | 0.00 | 0.01 | 0.01 | 56 | 1009.7 |
| 20260904001516 | 92 | 146 | 7.0 | 14.0 | 0.00 | 0.01 | 0.01 | 56 | 1006.6 |
| 20260904001230 | 93 | 189 | 10.0 | 16.0 | 0.00 | 0.01 | 0.01 | 56 | 1009.6 |
| 20260904000802 | 93 | 167 | 7.0 | 17.0 | 0.00 | 0.01 | 0.01 | 56 | 1009.6 |
| 20260904000248 | 94 | 163 | 9.0 | 17.0 | 0.00 | 0.01 | 0.01 | 55 | 1009.6 |
| 20260904000042 | 93 | 177 | 10.0 | 17.0 | 0.00 | 0.01 | 0.01 | 55 | 1006.5 |
| 20260903235731 | 94 | 135 | 10.0 | 16.0 | 0.00 | 0.01 | 0.01 | 55 | 1009.6 |
| 20260903235301 | 94 | 158 | 9.0 | 17.0 | 0.00 | 0.01 | 0.01 | 55 | 1009.6 |
| 20260903234721 | 95 | 182 | 11.0 | 19.0 | 0.00 | 0.01 | 0.01 | 54 | 1009.5 |
| 20260903234524 | 94 | 167 | 9.0 | 19.0 | 0.00 | 0.01 | 0.01 | 54 | 1006.5 |
| 20260903234235 | 95 | 169 | 10.0 | 19.0 | 0.00 | 0.01 | 0.01 | 53 | 1009.5 |
| 20260903233807 | 95 | 166 | 9.0 | 16.0 | 0.00 | 0.01 | 0.01 | 54 | 1009.5 |
| 20260903233229 | 95 | 156 | 9.0 | 21.0 | 0.00 | 0.01 | 0.01 | 53 | 1009.5 |
| 20260903233113 | 95 | 180 | 9.0 | 21.0 | 0.00 | 0.01 | 0.01 | 53 | 1006.4 |
| 20260903233001 | 95 | 176 | 10.0 | 21.0 | 0.00 | 0.01 | 0.01 | 52 | 1006.4 |
| 20260903232755 | 96 | 155 | 10.0 | 21.0 | 0.00 | 0.01 | 0.01 | 52 | 1009.4 |
| 20260903232224 | 96 | 157 | 10.0 | 18.0 | 0.00 | 0.01 | 0.01 | 52 | 1009.4 |
| 20260903231734 | 96 | 169 | 11.0 | 19.0 | 0.00 | 0.01 | 0.01 | 50 | 1009.4 |
| 20260903231530 | 96 | 157 | 12.0 | 19.0 | 0.00 | 0.01 | 0.01 | 51 | 1006.3 |
| 20260903231247 | 97 | 142 | 12.0 | 19.0 | 0.00 | 0.01 | 0.01 | 50 | 1009.3 |
| 20260903230729 | 97 | 150 | 11.0 | 19.0 | 0.00 | 0.01 | 0.01 | 51 | 1009.4 |
| 20260903230240 | 97 | 171 | 11.0 | 19.0 | 0.00 | 0.01 | 0.01 | 51 | 1009.4 |
| 20260903230028 | 97 | 173 | 11.0 | 19.0 | 0.00 | 0.01 | 0.01 | 51 | 1006.3 |
| 20260903225725 | 97 | 200 | 10.0 | 17.0 | 0.00 | 0.01 | 0.01 | 51 | 1009.4 |
| 20260903225234 | 97 | 154 | 9.0 | 17.0 | 0.00 | 0.01 | 0.01 | 51 | 1009.3 |
| 20260903224744 | 97 | 169 | 11.0 | 19.0 | 0.00 | 0.01 | 0.01 | 50 | 1009.2 |
| 20260903224525 | 97 | 160 | 12.0 | 19.0 | 0.00 | 0.01 | 0.01 | 50 | 1006.2 |
| 20260903224319 | 97 | 170 | 12.0 | 19.0 | 0.00 | 0.01 | 0.01 | 50 | 1009.2 |
| 20260903223738 | 98 | 175 | 15.0 | 22.0 | 0.00 | 0.01 | 0.01 | 49 | 1009.0 |
| 20260903223221 | 98 | 162 | 12.0 | 22.0 | 0.00 | 0.01 | 0.01 | 49 | 1009.0 |
| 20260903223046 | 97 | 173 | 15.0 | 22.0 | 0.00 | 0.01 | 0.01 | 49 | 1006.1 |
| 20260903222753 | 98 | 181 | 13.0 | 23.0 | 0.00 | 0.01 | 0.01 | 49 | 1009.1 |
| 20260903222237 | 98 | 158 | 13.0 | 22.0 | 0.00 | 0.01 | 0.01 | 49 | 1009.1 |
| 20260903221809 | 98 | 178 | 13.0 | 22.0 | 0.00 | 0.01 | 0.01 | 48 | 1009.0 |
| 20260903221558 | 98 | 159 | 15.0 | 22.0 | 0.00 | 0.01 | 0.01 | 47 | 1006.0 |
| 20260903221233 | 98 | 209 | 13.0 | 24.0 | 0.00 | 0.01 | 0.01 | 49 | 1009.0 |
| 20260903220803 | 98 | 159 | 13.0 | 19.0 | 0.00 | 0.01 | 0.01 | 49 | 1009.0 |
| 20260903220226 | 98 | 190 | 15.0 | 21.0 | 0.00 | 0.01 | 0.01 | 48 | 1009.1 |
| 20260903220042 | 98 | 190 | 13.0 | 23.0 | 0.00 | 0.01 | 0.01 | 49 | 1006.1 |
| 20260903215737 | 99 | 143 | 13.0 | 23.0 | 0.00 | 0.01 | 0.01 | 49 | 1009.2 |
| 20260903215306 | 99 | 198 | 15.0 | 24.0 | 0.00 | 0.01 | 0.01 | 49 | 1009.2 |
| 20260903214726 | 99 | 143 | 10.0 | 20.0 | 0.00 | 0.01 | 0.01 | 50 | 1009.2 |
| 20260903214519 | 98 | 163 | 12.0 | 20.0 | 0.00 | 0.01 | 0.01 | 49 | 1006.1 |
| 20260903214239 | 99 | 177 | 13.0 | 20.0 | 0.00 | 0.01 | 0.01 | 49 | 1009.2 |
| 20260903213721 | 99 | 171 | 12.0 | 22.0 | 0.00 | 0.01 | 0.01 | 50 | 1009.3 |
| 20260903213254 | 98 | 180 | 14.0 | 22.0 | 0.00 | 0.01 | 0.01 | 50 | 1009.4 |
| 20260903213057 | 98 | 167 | 12.0 | 19.0 | 0.00 | 0.01 | 0.01 | 50 | 1006.3 |
| 20260903212805 | 98 | 172 | 11.0 | 25.0 | 0.00 | 0.01 | 0.01 | 50 | 1009.4 |
| 20260903212228 | 98 | 175 | 16.0 | 28.0 | 0.00 | 0.01 | 0.01 | 49 | 1009.4 |
| 20260903211734 | 99 | 133 | 15.0 | 28.0 | 0.00 | 0.01 | 0.01 | 49 | 1009.5 |
| 20260903211537 | 98 | 148 | 15.0 | 22.0 | 0.00 | 0.01 | 0.01 | 49 | 1006.4 |
| 20260903211247 | 99 | 158 | 13.0 | 21.0 | 0.00 | 0.01 | 0.01 | 49 | 1009.5 |
| 20260903210737 | 99 | 171 | 18.0 | 21.0 | 0.00 | 0.01 | 0.01 | 49 | 1009.6 |
| 20260903210248 | 99 | 154 | 13.0 | 24.0 | 0.00 | 0.01 | 0.01 | 50 | 1009.6 |
| 20260903210019 | 98 | 175 | 10.0 | 24.0 | 0.00 | 0.01 | 0.01 | 49 | 1006.6 |
| 20260903205727 | 99 | 173 | 16.0 | 24.0 | 0.00 | 0.01 | 0.01 | 48 | 1009.6 |
| 20260903205238 | 99 | 171 | 15.0 | 24.0 | 0.00 | 0.01 | 0.01 | 49 | 1009.7 |
| 20260903204724 | 99 | 155 | 16.0 | 24.0 | 0.00 | 0.01 | 0.01 | 48 | 1009.7 |
| 20260903204520 | 99 | 182 | 15.0 | 23.0 | 0.00 | 0.01 | 0.01 | 49 | 1006.6 |
| 20260903204231 | 99 | 162 | 14.0 | 26.0 | 0.00 | 0.01 | 0.01 | 50 | 1009.6 |
| 20260903203742 | 99 | 141 | 15.0 | 22.0 | 0.00 | 0.01 | 0.01 | 49 | 1009.7 |
| 20260903203226 | 99 | 189 | 13.0 | 22.0 | 0.00 | 0.01 | 0.01 | 49 | 1009.7 |
| 20260903203019 | 99 | 192 | 13.0 | 22.0 | 0.00 | 0.01 | 0.01 | 49 | 1006.6 |
| 20260903202737 | 99 | 157 | 14.0 | 22.0 | 0.00 | 0.01 | 0.01 | 49 | 1009.7 |
| 20260903202221 | 99 | 182 | 11.0 | 23.0 | 0.00 | 0.01 | 0.01 | 50 | 1009.7 |
| 20260903201732 | 99 | 176 | 12.0 | 23.0 | 0.00 | 0.01 | 0.01 | 52 | 1009.8 |
| 20260903201509 | 98 | 169 | 15.0 | 23.0 | 0.00 | 0.01 | 0.01 | 49 | 1006.8 |
| 20260903201245 | 99 | 209 | 11.0 | 19.0 | 0.00 | 0.01 | 0.01 | 51 | 1009.9 |
| 20260903200727 | 99 | 187 | 13.0 | 19.0 | 0.00 | 0.01 | 0.01 | 50 | 1009.8 |
| 20260903200233 | 99 | 173 | 11.0 | 21.0 | 0.00 | 0.01 | 0.01 | 50 | 1009.9 |
| 20260903200001 | 98 | 219 | 10.0 | 23.0 | 0.00 | 0.01 | 0.01 | 49 | 1006.8 |
| 20260903195743 | 99 | 218 | 12.0 | 21.0 | 0.00 | 0.01 | 0.01 | 49 | 1009.9 |
| 20260903195235 | 99 | 192 | 17.0 | 21.0 | 0.00 | 0.01 | 0.01 | 49 | 1009.9 |
| 20260903194746 | 99 | 161 | 16.0 | 25.0 | 0.00 | 0.01 | 0.01 | 48 | 1009.9 |
| 20260903194535 | 98 | 180 | 14.0 | 21.0 | 0.00 | 0.01 | 0.01 | 49 | 1006.9 |
| 20260903194230 | 99 | 180 | 15.0 | 22.0 | 0.00 | 0.01 | 0.01 | 51 | 1010.0 |
| 20260903193740 | 99 | 192 | 11.0 | 22.0 | 0.00 | 0.01 | 0.01 | 51 | 1010.1 |
| 20260903193225 | 98 | 180 | 12.0 | 19.0 | 0.00 | 0.01 | 0.01 | 51 | 1010.2 |
| 20260903193036 | 98 | 165 | 11.0 | 19.0 | 0.00 | 0.01 | 0.01 | 52 | 1007.1 |
| 20260903192751 | 98 | 156 | 13.0 | 19.0 | 0.00 | 0.01 | 0.01 | 50 | 1010.3 |
| 20260903192241 | 98 | 170 | 12.0 | 19.0 | 0.00 | 0.01 | 0.01 | 51 | 1010.3 |
| 20260903191724 | 99 | 173 | 12.0 | 20.0 | 0.00 | 0.01 | 0.01 | 53 | 1010.2 |
| 20260903191543 | 98 | 173 | 11.0 | 20.0 | 0.00 | 0.01 | 0.01 | 54 | 1007.2 |
| 20260903191238 | 98 | 173 | 14.0 | 20.0 | 0.00 | 0.01 | 0.01 | 51 | 1010.3 |
| 20260903190729 | 98 | 171 | 9.0 | 17.0 | 0.00 | 0.01 | 0.01 | 53 | 1010.5 |
| 20260903190241 | 98 | 202 | 12.0 | 17.0 | 0.00 | 0.01 | 0.01 | 52 | 1010.5 |
| 20260903190028 | 97 | 185 | 10.0 | 19.0 | 0.00 | 0.01 | 0.01 | 55 | 1007.4 |
| 20260903185725 | 98 | 150 | 11.0 | 16.0 | 0.00 | 0.01 | 0.01 | 56 | 1010.6 |
| 20260903185232 | 97 | 204 | 7.0 | 14.0 | 0.00 | 0.01 | 0.01 | 54 | 1010.7 |
| 20260903184742 | 97 | 158 | 8.0 | 16.0 | 0.00 | 0.01 | 0.01 | 54 | 1010.8 |
| 20260903184523 | 96 | 215 | 9.0 | 16.0 | 0.00 | 0.01 | 0.01 | 55 | 1007.7 |
| 20260903184227 | 96 | 142 | 9.0 | 17.0 | 0.00 | 0.01 | 0.01 | 56 | 1010.7 |
| 20260903183738 | 96 | 190 | 7.0 | 19.0 | 0.00 | 0.01 | 0.01 | 55 | 1010.8 |
| 20260903183307 | 96 | 172 | 11.0 | 20.0 | 0.00 | 0.01 | 0.01 | 55 | 1010.8 |
| 20260903183051 | 95 | 206 | 9.0 | 17.0 | 0.00 | 0.01 | 0.01 | 56 | 1007.8 |
| 20260903182730 | 96 | 163 | 12.0 | 19.0 | 0.00 | 0.01 | 0.01 | 54 | 1010.9 |
| 20260903182242 | 96 | 152 | 11.0 | 16.0 | 0.00 | 0.01 | 0.01 | 58 | 1011.0 |
| 20260903181726 | 95 | 138 | 8.0 | 16.0 | 0.00 | 0.01 | 0.01 | 57 | 1011.2 |
| 20260903181553 | 95 | 165 | 10.0 | 16.0 | 0.00 | 0.01 | 0.01 | 57 | 1008.2 |
| 20260903181233 | 95 | 186 | 9.0 | 16.0 | 0.00 | 0.01 | 0.01 | 57 | 1011.3 |
| 20260903180803 | 95 | 151 | 9.0 | 13.0 | 0.00 | 0.01 | 0.01 | 58 | 1011.3 |
| 20260903180226 | 94 | 150 | 11.0 | 17.0 | 0.00 | 0.01 | 0.01 | 57 | 1011.3 |
| 20260903180025 | 94 | 194 | 9.0 | 18.0 | 0.00 | 0.01 | 0.01 | 60 | 1008.3 |
| 20260903175759 | 94 | 167 | 11.0 | 19.0 | 0.00 | 0.01 | 0.01 | 58 | 1011.3 |
| 20260903175249 | 94 | 182 | 13.0 | 19.0 | 0.00 | 0.01 | 0.01 | 58 | 1011.3 |
| 20260903174731 | 93 | 151 | 9.0 | 17.0 | 0.00 | 0.01 | 0.01 | 60 | 1011.4 |
| 20260903174559 | 92 | 184 | 8.0 | 17.0 | 0.00 | 0.01 | 0.01 | 60 | 1008.4 |
| 20260903174259 | 93 | 155 | 10.0 | 17.0 | 0.00 | 0.01 | 0.01 | 63 | 1011.5 |
| 20260903173722 | 92 | 148 | 6.0 | 15.0 | 0.00 | 0.01 | 0.01 | 64 | 1011.6 |
| 20260903173233 | 91 | 130 | 7.0 | 11.0 | 0.00 | 0.01 | 0.01 | 64 | 1011.6 |
| 20260903173031 | 91 | 143 | 6.0 | 11.0 | 0.00 | 0.01 | 0.01 | 65 | 1008.6 |
| 20260903172805 | 91 | 152 | 7.0 | 11.0 | 0.00 | 0.01 | 0.01 | 66 | 1011.7 |
| 20260903172228 | 91 | 156 | 4.0 | 10.0 | 0.00 | 0.01 | 0.01 | 62 | 1011.8 |
| 20260903171738 | 90 | 138 | 5.0 | 10.0 | 0.00 | 0.01 | 0.01 | 64 | 1011.9 |
| 20260903171509 | 90 | 134 | 4.0 | 10.0 | 0.00 | 0.01 | 0.01 | 64 | 1009.0 |
| 20260903171251 | 90 | 201 | 4.0 | 9.0 | 0.00 | 0.01 | 0.01 | 65 | 1012.1 |
| 20260903170727 | 89 | 194 | 4.0 | 10.0 | 0.00 | 0.01 | 0.01 | 65 | 1012.1 |
| 20260903170240 | 89 | 130 | 5.0 | 11.0 | 0.00 | 0.01 | 0.01 | 66 | 1011.9 |
| 20260903170028 | 88 | 166 | 5.0 | 11.0 | 0.00 | 0.01 | 0.01 | 68 | 1008.9 |
| 20260903165722 | 88 | 159 | 8.0 | 11.0 | 0.00 | 0.01 | 0.01 | 68 | 1011.8 |
| 20260903165231 | 88 | 146 | 6.0 | 11.0 | 0.00 | 0.01 | 0.01 | 66 | 1011.7 |
| 20260903164723 | 87 | 153 | 7.0 | 12.0 | 0.00 | 0.01 | 0.01 | 67 | 1011.8 |
| 20260903164557 | 87 | 151 | 8.0 | 12.0 | 0.00 | 0.01 | 0.01 | 68 | 1008.8 |
| 20260903164256 | 87 | 146 | 7.0 | 11.0 | 0.00 | 0.01 | 0.01 | 70 | 1011.7 |
| 20260903163746 | 86 | 152 | 7.0 | 12.0 | 0.00 | 0.01 | 0.01 | 69 | 1011.8 |
| 20260903163222 | 86 | 144 | 8.0 | 15.0 | 0.00 | 0.01 | 0.01 | 66 | 1011.8 |
| 20260903163033 | 86 | 119 | 7.0 | 15.0 | 0.00 | 0.01 | 0.01 | 66 | 1008.9 |
| 20260903162734 | 86 | 153 | 9.0 | 15.0 | 0.00 | 0.01 | 0.01 | 66 | 1012.0 |
| 20260903162246 | 86 | 158 | 6.0 | 11.0 | 0.00 | 0.01 | 0.01 | 68 | 1012.1 |
| 20260903161757 | 86 | 184 | 4.0 | 9.0 | 0.00 | 0.01 | 0.01 | 68 | 1012.2 |
| 20260903161602 | 86 | 148 | 4.0 | 9.0 | 0.00 | 0.01 | 0.01 | 69 | 1009.2 |
| 20260903161249 | 86 | 130 | 7.0 | 9.0 | 0.00 | 0.01 | 0.01 | 70 | 1012.1 |
| 20260903160730 | 85 | 135 | 7.0 | 9.0 | 0.00 | 0.01 | 0.01 | 74 | 1012.0 |
| 20260903160241 | 84 | 130 | 5.0 | 8.0 | 0.00 | 0.01 | 0.01 | 73 | 1012.0 |
| 20260903160055 | 84 | 127 | 3.0 | 5.0 | 0.00 | 0.01 | 0.01 | 72 | 1009.1 |
| 20260903155749 | 84 | 110 | 3.0 | 4.0 | 0.00 | 0.01 | 0.01 | 73 | 1012.1 |
| 20260903155235 | 84 | 81 | 3.0 | 5.0 | 0.00 | 0.01 | 0.01 | 73 | 1012.2 |
| 20260903154747 | 84 | 63 | 2.0 | 7.0 | 0.00 | 0.01 | 0.01 | 72 | 1012.3 |
| 20260903154555 | 83 | 63 | 2.0 | 7.0 | 0.00 | 0.01 | 0.01 | 72 | 1009.3 |
| 20260903154233 | 84 | 94 | 4.0 | 7.0 | 0.00 | 0.01 | 0.01 | 72 | 1012.2 |
| 20260903153801 | 84 | 95 | 4.0 | 9.0 | 0.00 | 0.01 | 0.01 | 72 | 1012.2 |
| 20260903153224 | 84 | 17 | 4.0 | 9.0 | 0.00 | 0.01 | 0.01 | 71 | 1012.3 |
| 20260903153036 | 83 | 24 | 5.0 | 9.0 | 0.00 | 0.01 | 0.01 | 72 | 1009.3 |
| 20260903152735 | 84 | 355 | 6.0 | 9.0 | 0.00 | 0.01 | 0.01 | 72 | 1012.3 |
| 20260903152245 | 83 | 134 | 2.0 | 9.0 | 0.00 | 0.01 | 0.01 | 70 | 1012.2 |
| 20260903151728 | 83 | 131 | 4.0 | 10.0 | 0.00 | 0.01 | 0.01 | 72 | 1011.9 |
| 20260903151546 | 82 | 126 | 4.0 | 10.0 | 0.00 | 0.01 | 0.01 | 71 | 1008.9 |
| 20260903151240 | 83 | 145 | 6.0 | 10.0 | 0.00 | 0.01 | 0.01 | 72 | 1011.9 |
| 20260903150723 | 82 | 136 | 4.0 | 7.0 | 0.00 | 0.01 | 0.01 | 74 | 1011.8 |
| 20260903150234 | 82 | 135 | 4.0 | 9.0 | 0.00 | 0.01 | 0.01 | 73 | 1011.9 |
| 20260903150105 | 81 | 148 | 3.0 | 9.0 | 0.00 | 0.01 | 0.01 | 72 | 1008.8 |
| 20260903145747 | 82 | 171 | 5.0 | 11.0 | 0.00 | 0.01 | 0.01 | 74 | 1011.8 |
| 20260903145257 | 82 | 157 | 6.0 | 11.0 | 0.00 | 0.01 | 0.01 | 73 | 1011.8 |
| 20260903144743 | 81 | 158 | 7.0 | 12.0 | 0.00 | 0.01 | 0.01 | 72 | 1011.8 |
| 20260903144615 | 81 | 163 | 7.0 | 12.0 | 0.00 | 0.01 | 0.01 | 72 | 1008.8 |
| 20260903144229 | 81 | 142 | 7.0 | 12.0 | 0.00 | 0.01 | 0.01 | 72 | 1011.7 |
| 20260903143758 | 81 | 167 | 9.0 | 12.0 | 0.00 | 0.01 | 0.01 | 72 | 1011.7 |
| 20260903143249 | 81 | 187 | 7.0 | 11.0 | 0.00 | 0.01 | 0.01 | 72 | 1011.7 |
| 20260903143028 | 81 | 160 | 6.0 | 13.0 | 0.00 | 0.01 | 0.01 | 72 | 1008.8 |
| 20260903142740 | 81 | 166 | 7.0 | 13.0 | 0.00 | 0.01 | 0.01 | 72 | 1011.8 |
| 20260903142224 | 81 | 131 | 8.0 | 13.0 | 0.00 | 0.01 | 0.01 | 71 | 1011.8 |
| 20260903141735 | 81 | 130 | 8.0 | 11.0 | 0.00 | 0.01 | 0.01 | 71 | 1011.9 |
| 20260903141528 | 81 | 144 | 6.0 | 10.0 | 0.00 | 0.01 | 0.01 | 72 | 1008.8 |
| 20260903141305 | 81 | 130 | 6.0 | 10.0 | 0.00 | 0.01 | 0.01 | 71 | 1011.8 |
| 20260903140726 | 81 | 130 | 6.0 | 9.0 | 0.00 | 0.01 | 0.01 | 72 | 1011.8 |
| 20260903140238 | 81 | 128 | 5.0 | 9.0 | 0.00 | 0.01 | 0.01 | 72 | 1011.9 |
| 20260903140056 | 81 | 118 | 5.0 | 9.0 | 0.00 | 0.01 | 0.01 | 72 | 1009.0 |
| 20260903140008 | 81 | 121 | 5.0 | 9.0 | 0.00 | 0.01 | 0.01 | 72 | 1009.0 |
| 20260903135721 | 81 | 126 | 6.0 | 9.0 | 0.00 | 0.01 | 0.01 | 72 | 1012.0 |
| 20260903135233 | 81 | 97 | 6.0 | 9.0 | 0.00 | 0.01 | 0.01 | 73 | 1011.9 |
| 20260903134746 | 81 | 107 | 5.0 | 9.0 | 0.00 | 0.01 | 0.01 | 73 | 1011.9 |
| 20260903134621 | 80 | 119 | 6.0 | 9.0 | 0.00 | 0.01 | 0.01 | 74 | 1008.9 |
| 20260903134230 | 81 | 111 | 6.0 | 10.0 | 0.00 | 0.01 | 0.01 | 74 | 1011.9 |
| 20260903133738 | 80 | 115 | 7.0 | 10.0 | 0.00 | 0.01 | 0.01 | 74 | 1011.9 |
| 20260903133245 | 80 | 106 | 5.0 | 8.0 | 0.00 | 0.01 | 0.01 | 73 | 1011.9 |
| 20260903133012 | 80 | 132 | 3.0 | 7.0 | 0.00 | 0.01 | 0.01 | 72 | 1009.0 |
| 20260903132727 | 80 | 112 | 4.0 | 9.0 | 0.00 | 0.01 | 0.01 | 72 | 1011.9 |
| 20260903132239 | 80 | 132 | 4.0 | 9.0 | 0.00 | 0.01 | 0.01 | 70 | 1011.8 |
| 20260903131723 | 80 | 149 | 4.0 | 7.0 | 0.00 | 0.01 | 0.01 | 70 | 1011.9 |
| 20260903131525 | 80 | 149 | 4.0 | 7.0 | 0.00 | 0.01 | 0.01 | 70 | 1009.0 |
| 20260903131236 | 80 | 155 | 4.0 | 6.0 | 0.00 | 0.01 | 0.01 | 71 | 1011.9 |
| 20260903130807 | 80 | 128 | 3.0 | 5.0 | 0.00 | 0.01 | 0.01 | 70 | 1011.9 |
| 20260903130228 | 80 | 132 | 2.0 | 7.0 | 0.00 | 0.01 | 0.01 | 70 | 1012.0 |
| 20260903130101 | 79 | 95 | 2.0 | 7.0 | 0.00 | 0.01 | 0.01 | 70 | 1009.0 |
| 20260903125736 | 80 | 96 | 4.0 | 7.0 | 0.00 | 0.01 | 0.01 | 70 | 1011.9 |
| 20260903125247 | 80 | 147 | 2.0 | 4.0 | 0.00 | 0.01 | 0.01 | 70 | 1012.1 |
| 20260903124728 | 80 | 147 | 1.0 | 4.0 | 0.00 | 0.01 | 0.01 | 70 | 1012.2 |
| 20260903124549 | 79 | 147 | 1.0 | 7.0 | 0.00 | 0.01 | 0.01 | 69 | 1009.1 |
| 20260903124241 | 80 | 147 | 3.0 | 9.0 | 0.00 | 0.01 | 0.01 | 70 | 1012.0 |
| 20260903123749 | 80 | 189 | 5.0 | 9.0 | 0.00 | 0.01 | 0.01 | 70 | 1012.0 |
| 20260903123240 | 80 | 161 | 6.0 | 8.0 | 0.00 | 0.01 | 0.01 | 70 | 1012.0 |
| 20260903123027 | 79 | 152 | 4.0 | 7.0 | 0.00 | 0.01 | 0.01 | 70 | 1008.9 |
| 20260903122722 | 80 | 191 | 5.0 | 9.0 | 0.00 | 0.01 | 0.01 | 70 | 1011.9 |
| 20260903122228 | 80 | 187 | 6.0 | 12.0 | 0.00 | 0.01 | 0.01 | 70 | 1011.8 |
| 20260903121738 | 80 | 172 | 7.0 | 12.0 | 0.00 | 0.01 | 0.01 | 70 | 1011.7 |
| 20260903121528 | 79 | 178 | 5.0 | 9.0 | 0.00 | 0.01 | 0.01 | 70 | 1008.7 |
| 20260903121252 | 80 | 169 | 5.0 | 9.0 | 0.00 | 0.01 | 0.01 | 70 | 1011.6 |
| 20260903120734 | 80 | 163 | 5.0 | 8.0 | 0.00 | 0.01 | 0.01 | 70 | 1011.6 |